WB8SKP-WX Weather Reports


time (UTC)temp
C
wind
direction
speed
KPH
gust
KPH
rain 1hr
cm
rain 24hr
cm
rain mn
cm
humidity
%
barometer
mb
20260504081022 10 175 0.0 8.0 0.00 0.00 0.00 85 993.2
20260504044952 11 171 0.0 19.3 0.00 0.00 0.00 74 994.7
20260504042952 11 76 0.0 19.3 0.00 0.00 0.00 77 994.9
20260504040952 12 140 0.0 19.3 0.00 0.00 0.00 76 995.0
20260504034952 12 15 0.0 19.3 0.00 0.00 0.00 71 995.2
20260504032922 14 76 0.0 19.3 0.00 0.00 0.00 65 995.3
20260504030922 15 217 1.6 19.3 0.00 0.00 0.00 56 995.2
20260504024852 15 337 0.0 19.3 0.00 0.00 0.00 55 994.9
20260504022852 14 265 4.8 19.3 0.00 0.00 0.00 60 994.6
20260504020852 13 238 4.8 19.3 0.00 0.00 0.00 61 994.8
20260504014852 13 114 0.0 19.3 0.00 0.00 0.00 67 995.0
20260504012822 14 204 0.0 19.3 0.00 0.00 0.00 65 995.0
20260504010822 15 79 0.0 19.3 0.00 0.00 0.00 60 995.0
20260504004822 17 79 0.0 19.3 0.00 0.00 0.00 52 995.1
20260504002826 18 329 0.0 19.3 0.00 0.00 0.00 47 995.1
20260504000752 19 213 0.0 19.3 0.00 0.00 0.00 43 995.1
20260503234752 20 242 3.2 19.3 0.00 0.00 0.00 42 995.0
20260503232752 20 247 3.2 19.3 0.00 0.00 0.00 41 995.3
20260503230752 20 207 4.8 19.3 0.00 0.00 0.00 40 995.5
20260503224752 20 197 9.7 19.3 0.00 0.00 0.00 39 995.7
20260503222722 20 205 1.6 19.3 0.00 0.00 0.00 40 995.9
20260503220722 20 275 4.8 19.3 0.00 0.00 0.00 39 996.2
20260503214652 20 194 3.2 19.3 0.00 0.00 0.00 40 996.5
20260503212652 20 208 3.2 19.3 0.00 0.00 0.00 42 996.8
20260503210652 20 189 9.7 19.3 0.00 0.00 0.00 41 997.1
20260503204622 20 257 8.0 19.3 0.00 0.00 0.00 41 997.3
20260503202622 19 261 8.0 19.3 0.00 0.00 0.00 41 997.9
20260503200552 19 199 1.6 19.3 0.00 0.00 0.00 41 998.3
20260503194552 18 226 4.8 17.7 0.00 0.00 0.00 43 998.7
20260503192552 18 290 1.6 17.7 0.00 0.00 0.00 45 999.0
20260503190552 18 249 3.2 17.7 0.00 0.00 0.00 43 999.6
20260503184522 17 206 8.0 17.7 0.00 0.00 0.00 43 999.8
20260503182451 17 268 4.8 16.1 0.00 0.00 0.00 47 1000.1
20260503180452 17 310 4.8 16.1 0.00 0.00 0.00 43 1000.5
20260503174451 17 347 4.8 16.1 0.00 0.00 0.00 43 1000.5
20260503172451 17 249 1.6 16.1 0.00 0.00 0.00 48 1000.9
20260503170451 16 182 3.2 16.1 0.00 0.00 0.00 49 1001.1
20260503150321 13 205 4.8 12.9 0.00 0.00 0.00 64 1002.0
20260503140251 10 209 4.8 9.7 0.00 0.00 0.00 90 1002.1